THA322 HTZA-FIMP

Flight info

Callsign THA322
Flight time 1h 11m
Altitude 35000
Route UVMEX UT913 KINAN UB790 OKDOP UA400 RASMA
Aircraft B773/H-V/N

Departure

Time 2026-04-21 18:27
Airport Abeid Amani Karume International Airport (HTZA)

Arrival

Time 2026-04-21 19:38
Airport Sir Seewoosagur Ramgoolam International Airport (FIMP)
Time Latitude Longitude Altitude Speed Heading
2026-04-21 18:14 -6.21862 39.22215 63 ft 0 kts 265°
2026-04-21 18:22 -6.21861 39.22222 53 ft 2 kts 265°
2026-04-21 18:22 -6.21860 39.22239 54 ft 2 kts 266°
2026-04-21 18:22 -6.21857 39.22255 59 ft 2 kts 267°
2026-04-21 18:23 -6.21861 39.22271 54 ft 2 kts 304°
2026-04-21 18:23 -6.21872 39.22283 55 ft 2 kts 330°
2026-04-21 18:23 -6.21883 39.22288 55 ft 1 kts 353°
2026-04-21 18:25 -6.21852 39.22285 55 ft 9 kts 354°
2026-04-21 18:25 -6.21767 39.22301 59 ft 17 kts 14°
2026-04-21 18:25 -6.21625 39.22299 66 ft 24 kts 353°
2026-04-21 18:25 -6.21522 39.22308 57 ft 14 kts 39°
2026-04-21 18:26 -6.21493 39.22384 61 ft 7 kts 103°
2026-04-21 18:26 -6.21539 39.22421 59 ft 17 kts 162°
2026-04-21 18:26 -6.21963 39.22469 59 ft 112 kts 174°
2026-04-21 18:26 -6.23047 39.22591 144 ft 197 kts 173°
2026-04-21 18:27 -6.24428 39.22779 1379 ft 196 kts 164°
2026-04-21 18:27 -6.25552 39.23504 2622 ft 203 kts 134°
2026-04-21 18:27 -6.26479 39.24693 2891 ft 229 kts 127°
2026-04-21 18:27 -6.27434 39.26021 3470 ft 240 kts 127°
2026-04-21 18:28 -6.28431 39.27416 4135 ft 250 kts 126°
2026-04-21 18:28 -6.29467 39.28856 4902 ft 257 kts 126°
2026-04-21 18:28 -6.30527 39.30324 5737 ft 261 kts 126°
2026-04-21 18:28 -6.31611 39.31811 6517 ft 265 kts 126°
2026-04-21 18:29 -6.32703 39.33300 7276 ft 269 kts 126°
2026-04-21 18:29 -6.33824 39.34821 8039 ft 272 kts 126°
2026-04-21 18:29 -6.34963 39.36361 8773 ft 276 kts 126°
2026-04-21 18:29 -6.36119 39.37922 9535 ft 280 kts 126°
2026-04-21 18:30 -6.37296 39.39507 10250 ft 286 kts 126°
2026-04-21 18:30 -6.38526 39.41163 10581 ft 307 kts 126°
2026-04-21 18:30 -6.39855 39.42953 10765 ft 331 kts 126°
2026-04-21 18:30 -6.41287 39.44879 10932 ft 355 kts 126°
2026-04-21 18:31 -6.42803 39.46917 11375 ft 368 kts 126°
2026-04-21 18:31 -6.44351 39.48996 12052 ft 374 kts 126°
2026-04-21 18:31 -6.45910 39.51089 12674 ft 381 kts 126°
2026-04-21 18:31 -6.47508 39.53235 13441 ft 384 kts 126°
2026-04-21 18:32 -6.49123 39.55404 14088 ft 389 kts 126°
2026-04-21 18:32 -6.50751 39.57591 14760 ft 391 kts 126°
2026-04-21 18:32 -6.52388 39.59791 15388 ft 395 kts 126°
2026-04-21 18:32 -6.54032 39.62000 15925 ft 400 kts 126°
2026-04-21 18:33 -6.55705 39.64249 16643 ft 402 kts 126°
2026-04-21 18:33 -6.57389 39.66512 17221 ft 407 kts 126°
2026-04-21 18:33 -6.59097 39.68810 17808 ft 411 kts 126°
2026-04-21 18:33 -6.60819 39.71126 18411 ft 414 kts 126°
2026-04-21 18:34 -6.62554 39.73459 18880 ft 418 kts 126°
2026-04-21 18:34 -6.64304 39.75812 19385 ft 421 kts 126°
2026-04-21 18:34 -6.66069 39.78187 19880 ft 425 kts 126°
2026-04-21 18:34 -6.67819 39.80541 20392 ft 427 kts 126°
2026-04-21 18:35 -6.69022 39.82160 20731 ft 429 kts 126°
2026-04-21 18:35 -6.71405 39.85368 21343 ft 434 kts 126°
2026-04-21 18:35 -6.73223 39.87815 21817 ft 437 kts 126°
2026-04-21 18:35 -6.75052 39.90277 22277 ft 440 kts 126°
2026-04-21 18:36 -6.76932 39.92736 22770 ft 443 kts 129°
2026-04-21 18:36 -6.77983 39.93910 22972 ft 445 kts 133°
2026-04-21 18:36 -6.78787 39.94714 23143 ft 447 kts 135°
2026-04-21 18:37 -6.81144 39.96783 23571 ft 451 kts 140°
2026-04-21 18:37 -6.83709 39.98622 23911 ft 455 kts 146°
2026-04-21 18:37 -6.86413 40.00310 24269 ft 458 kts 147°
2026-04-21 18:37 -6.89119 40.01963 24627 ft 460 kts 147°
2026-04-21 18:38 -6.91867 40.03634 24985 ft 462 kts 147°
2026-04-21 18:38 -6.94633 40.05320 25344 ft 465 kts 147°
2026-04-21 18:38 -6.97403 40.07018 25694 ft 467 kts 147°
2026-04-21 18:38 -7.00175 40.08726 26066 ft 469 kts 147°
2026-04-21 18:39 -7.02962 40.10450 26390 ft 471 kts 147°
2026-04-21 18:39 -7.05778 40.12198 26561 ft 478 kts 147°
2026-04-21 18:39 -7.08596 40.13949 26640 ft 485 kts 147°
2026-04-21 18:39 -7.11488 40.15746 26731 ft 491 kts 147°
2026-04-21 18:40 -7.14413 40.17564 26853 ft 496 kts 147°
2026-04-21 18:40 -7.17362 40.19397 26998 ft 499 kts 147°
2026-04-21 18:40 -7.19326 40.20617 27106 ft 501 kts 147°
2026-04-21 18:40 -7.23309 40.23091 27361 ft 503 kts 147°
2026-04-21 18:41 -7.26295 40.24946 27565 ft 504 kts 147°
2026-04-21 18:41 -7.29274 40.26797 27870 ft 502 kts 147°
2026-04-21 18:41 -7.32241 40.28641 28188 ft 500 kts 147°
2026-04-21 18:41 -7.35170 40.30461 28492 ft 500 kts 147°
2026-04-21 18:42 -7.38134 40.32304 28781 ft 499 kts 147°
2026-04-21 18:42 -7.41093 40.34145 29082 ft 498 kts 147°
2026-04-21 18:42 -7.44044 40.35980 29411 ft 497 kts 147°
2026-04-21 18:42 -7.46985 40.37810 29717 ft 496 kts 147°
2026-04-21 18:43 -7.49889 40.39617 30021 ft 495 kts 147°
2026-04-21 18:43 -7.52818 40.41440 30290 ft 494 kts 147°
2026-04-21 18:43 -7.55740 40.43259 30551 ft 493 kts 147°
2026-04-21 18:43 -7.58659 40.45076 30856 ft 492 kts 147°
2026-04-21 18:44 -7.61561 40.46883 31121 ft 491 kts 147°
2026-04-21 18:44 -7.64477 40.48699 31394 ft 490 kts 147°
2026-04-21 18:44 -7.67375 40.50504 31699 ft 489 kts 147°
2026-04-21 18:44 -7.70234 40.52285 31995 ft 488 kts 147°
2026-04-21 18:45 -7.73118 40.54082 32283 ft 486 kts 147°
2026-04-21 18:45 -7.76004 40.55880 32615 ft 485 kts 147°
2026-04-21 18:45 -7.78875 40.57670 32917 ft 484 kts 147°
2026-04-21 18:45 -7.81753 40.59464 33049 ft 487 kts 147°
2026-04-21 18:46 -7.84638 40.61263 33153 ft 490 kts 147°
2026-04-21 18:46 -7.87547 40.63077 33255 ft 492 kts 147°
2026-04-21 18:46 -7.90429 40.64875 33367 ft 494 kts 147°
2026-04-21 18:46 -7.93368 40.66708 33488 ft 495 kts 147°
2026-04-21 18:47 -7.96307 40.68541 33615 ft 496 kts 147°
2026-04-21 18:47 -7.99251 40.70378 33751 ft 497 kts 147°
2026-04-21 18:47 -8.02196 40.72216 33945 ft 496 kts 147°
2026-04-21 18:47 -8.05094 40.74024 34071 ft 497 kts 147°
2026-04-21 18:48 -8.08033 40.75859 34232 ft 496 kts 147°
2026-04-21 18:48 -8.10969 40.77692 34407 ft 495 kts 148°
2026-04-21 18:48 -8.13908 40.79528 34563 ft 495 kts 148°
2026-04-21 18:48 -8.16833 40.81355 34755 ft 494 kts 148°
2026-04-21 18:49 -8.19753 40.83179 34872 ft 494 kts 148°
2026-04-21 18:49 -8.24785 40.86323 34936 ft 492 kts 148°
2026-04-21 18:49 -8.52790 41.03857 34870 ft 471 kts 148°
2026-04-21 18:50 -8.57317 41.06688 34939 ft 471 kts 148°
2026-04-21 18:50 -8.75388 41.18001 35102 ft 478 kts 148°
2026-04-21 18:50 -8.82189 41.22264 35001 ft 483 kts 148°
2026-04-21 18:51 -9.69986 41.77505 34907 ft 487 kts 148°
2026-04-21 18:51 -10.30766 42.15924 34902 ft 474 kts 148°
2026-04-21 18:52 -10.59313 42.34041 34976 ft 467 kts 148°
2026-04-21 18:52 -10.90797 42.63253 35043 ft 485 kts 131°
2026-04-21 18:53 -11.23743 43.02846 34878 ft 469 kts 131°
2026-04-21 18:53 -11.44939 43.28359 35031 ft 468 kts 131°
2026-04-21 18:54 -11.64383 43.51823 35000 ft 481 kts 131°
2026-04-21 18:54 -11.98696 43.93371 34854 ft 472 kts 131°
2026-04-21 18:54 -12.05057 44.01093 34962 ft 468 kts 131°
2026-04-21 18:55 -12.36716 44.39614 34989 ft 464 kts 131°
2026-04-21 18:55 -12.70617 44.81036 34994 ft 466 kts 131°
2026-04-21 18:56 -13.02801 45.20530 35016 ft 468 kts 130°
2026-04-21 18:56 -13.12870 45.32956 34841 ft 453 kts 130°
2026-04-21 18:56 -13.15113 45.35719 34907 ft 456 kts 130°
2026-04-21 18:57 -13.33235 45.58080 35051 ft 475 kts 130°
2026-04-21 18:57 -13.41557 45.68368 34938 ft 465 kts 131°
2026-04-21 18:57 -13.48192 45.76580 34861 ft 452 kts 131°
2026-04-21 18:57 -13.58048 45.88786 34965 ft 446 kts 131°
2026-04-21 18:58 -13.73661 46.08157 35054 ft 453 kts 131°
2026-04-21 18:58 -13.93251 46.32542 34968 ft 462 kts 131°
2026-04-21 18:58 -14.09528 46.52860 34883 ft 451 kts 131°
2026-04-21 18:59 -14.25094 46.72330 34875 ft 442 kts 131°
2026-04-21 18:59 -14.40965 46.92227 34989 ft 449 kts 131°
2026-04-21 18:59 -14.56789 47.12120 35050 ft 461 kts 131°
2026-04-21 19:00 -14.78115 47.39018 34870 ft 439 kts 131°
2026-04-21 19:00 -15.09134 47.78277 35090 ft 450 kts 131°
2026-04-21 19:01 -15.26409 48.00245 34978 ft 454 kts 131°
2026-04-21 19:01 -15.42171 48.20338 34927 ft 443 kts 131°
2026-04-21 19:01 -15.46344 48.25663 34988 ft 439 kts 131°
2026-04-21 19:01 -15.56869 48.39113 35090 ft 442 kts 131°
2026-04-21 19:02 -15.72391 48.59001 35154 ft 452 kts 131°
2026-04-21 19:02 -15.84134 48.74083 35003 ft 441 kts 131°
2026-04-21 19:03 -15.97154 48.90834 35166 ft 453 kts 131°
2026-04-21 19:03 -16.08510 49.05495 34986 ft 444 kts 131°
2026-04-21 19:04 -16.29316 49.32394 35088 ft 436 kts 131°
2026-04-21 19:04 -16.52528 49.62542 35172 ft 448 kts 130°
2026-04-21 19:05 -16.79506 49.97750 34990 ft 443 kts 131°
2026-04-21 19:05 -17.09882 50.37588 35086 ft 440 kts 131°
2026-04-21 19:06 -17.40953 50.78593 35063 ft 449 kts 131°
2026-04-21 19:06 -17.56023 50.98572 34974 ft 438 kts 131°
2026-04-21 19:06 -17.71026 51.18515 35003 ft 432 kts 131°
2026-04-21 19:06 -17.85999 51.38477 35119 ft 441 kts 131°
2026-04-21 19:07 -18.01317 51.58968 35134 ft 449 kts 131°
2026-04-21 19:07 -18.16684 51.79594 35023 ft 444 kts 131°
2026-04-21 19:07 -18.31675 51.99774 34965 ft 432 kts 131°
2026-04-21 19:08 -18.61483 52.40081 35144 ft 445 kts 131°
2026-04-21 19:08 -18.91831 52.81402 34991 ft 440 kts 131°
2026-04-21 19:09 -19.17674 53.16785 35142 ft 441 kts 131°
2026-04-21 19:09 -19.40599 53.48363 35059 ft 453 kts 131°
2026-04-21 19:10 -19.70697 53.90061 35023 ft 439 kts 130°
2026-04-21 19:10 -19.85653 54.10892 35128 ft 448 kts 130°
2026-04-21 19:10 -19.93178 54.22014 35098 ft 461 kts 120°
2026-04-21 19:10 -19.97370 54.39897 35095 ft 473 kts 103°
2026-04-21 19:11 -20.01012 54.67005 35011 ft 464 kts 103°
2026-04-21 19:11 -20.08773 55.21592 35149 ft 476 kts 102°
2026-04-21 19:12 -20.10062 55.30848 35088 ft 481 kts 102°
2026-04-21 19:12 -20.11039 55.37902 35071 ft 480 kts 102°
2026-04-21 19:13 -20.12005 55.44889 35065 ft 478 kts 102°
2026-04-21 19:13 -20.12974 55.51898 35059 ft 477 kts 102°
2026-04-21 19:14 -20.13936 55.58873 35069 ft 475 kts 102°
2026-04-21 19:14 -20.14888 55.65795 35067 ft 475 kts 102°
2026-04-21 19:15 -20.15846 55.72774 34559 ft 481 kts 102°
2026-04-21 19:15 -20.16329 55.76300 33830 ft 482 kts 102°
2026-04-21 19:15 -20.16814 55.79849 32953 ft 483 kts 102°
2026-04-21 19:15 -20.17291 55.83351 32090 ft 484 kts 102°
2026-04-21 19:16 -20.17774 55.86899 31199 ft 485 kts 102°
2026-04-21 19:16 -20.18257 55.90455 30443 ft 484 kts 102°
2026-04-21 19:16 -20.18734 55.93985 29750 ft 480 kts 102°
2026-04-21 19:16 -20.19209 55.97489 29070 ft 475 kts 102°
2026-04-21 19:17 -20.20106 56.04410 27789 ft 468 kts 99°
2026-04-21 19:17 -20.20266 56.07869 27201 ft 466 kts 94°
2026-04-21 19:17 -20.20252 56.11272 26620 ft 463 kts 92°
2026-04-21 19:18 -20.20182 56.14680 26039 ft 459 kts 92°
2026-04-21 19:18 -20.20114 56.18073 25455 ft 456 kts 92°
2026-04-21 19:18 -20.20069 56.21455 24863 ft 454 kts 92°
2026-04-21 19:18 -20.20048 56.24806 24277 ft 452 kts 92°
2026-04-21 19:19 -20.20043 56.28103 23706 ft 450 kts 92°
2026-04-21 19:19 -20.20046 56.31435 23040 ft 448 kts 92°
2026-04-21 19:19 -20.20052 56.34750 22427 ft 445 kts 92°
2026-04-21 19:19 -20.20058 56.38032 21852 ft 441 kts 92°
2026-04-21 19:20 -20.20062 56.41291 21283 ft 438 kts 92°
2026-04-21 19:20 -20.20065 56.44484 20731 ft 435 kts 92°
2026-04-21 19:20 -20.20067 56.47701 20183 ft 432 kts 92°
2026-04-21 19:20 -20.20068 56.50897 19633 ft 429 kts 92°
2026-04-21 19:21 -20.20067 56.54074 19077 ft 427 kts 92°
2026-04-21 19:21 -20.20067 56.57225 18525 ft 425 kts 92°
2026-04-21 19:21 -20.20067 56.60328 17922 ft 423 kts 91°
2026-04-21 19:21 -20.20065 56.63450 17343 ft 420 kts 91°
2026-04-21 19:22 -20.20063 56.66550 16784 ft 416 kts 91°
2026-04-21 19:22 -20.20061 56.69626 16238 ft 413 kts 91°
2026-04-21 19:22 -20.20057 56.72615 15699 ft 398 kts 91°
2026-04-21 19:22 -20.20054 56.75558 15206 ft 395 kts 91°
2026-04-21 19:23 -20.20051 56.78485 14689 ft 393 kts 91°
2026-04-21 19:23 -20.20046 56.81356 14180 ft 391 kts 91°
2026-04-21 19:23 -20.20041 56.84242 13632 ft 389 kts 90°
2026-04-21 19:23 -20.20035 56.87080 13091 ft 379 kts 90°
2026-04-21 19:24 -20.20029 56.89871 12579 ft 376 kts 91°
2026-04-21 19:24 -20.20023 56.92627 12080 ft 367 kts 90°
2026-04-21 19:24 -20.20017 56.95108 11635 ft 364 kts 90°
2026-04-21 19:24 -20.20011 56.97436 11235 ft 362 kts 90°
2026-04-21 19:25 -20.20004 57.00131 11078 ft 350 kts 90°
2026-04-21 19:25 -20.19996 57.02681 10913 ft 339 kts 90°
2026-04-21 19:25 -20.19989 57.05126 10768 ft 325 kts 90°
2026-04-21 19:25 -20.19982 57.07423 10611 ft 296 kts 90°
2026-04-21 19:26 -20.19975 57.09509 10506 ft 278 kts 90°
2026-04-21 19:26 -20.19969 57.11535 10389 ft 269 kts 90°
2026-04-21 19:26 -20.19963 57.13493 10283 ft 259 kts 90°
2026-04-21 19:26 -20.19956 57.15384 10175 ft 253 kts 90°
2026-04-21 19:27 -20.19950 57.17272 10090 ft 260 kts 90°
2026-04-21 19:27 -20.19943 57.19269 9776 ft 276 kts 90°
2026-04-21 19:27 -20.19936 57.21326 9442 ft 277 kts 90°
2026-04-21 19:27 -20.19928 57.23324 9088 ft 266 kts 90°
2026-04-21 19:28 -20.19919 57.25282 8793 ft 264 kts 90°
2026-04-21 19:28 -20.19963 57.27191 8463 ft 259 kts 100°
2026-04-21 19:28 -20.20605 57.28952 8182 ft 253 kts 122°
2026-04-21 19:28 -20.21550 57.30438 7997 ft 232 kts 123°
2026-04-21 19:29 -20.22430 57.31814 7641 ft 220 kts 122°
2026-04-21 19:29 -20.23278 57.33141 7423 ft 214 kts 122°
2026-04-21 19:29 -20.24116 57.34457 7098 ft 213 kts 122°
2026-04-21 19:29 -20.24937 57.35746 6814 ft 204 kts 122°
2026-04-21 19:30 -20.25725 57.36985 6564 ft 199 kts 122°
2026-04-21 19:30 -20.26498 57.38204 6333 ft 198 kts 122°
2026-04-21 19:30 -20.27251 57.39393 6091 ft 193 kts 121°
2026-04-21 19:30 -20.27983 57.40546 5856 ft 183 kts 121°
2026-04-21 19:31 -20.28676 57.41643 5620 ft 173 kts 121°
2026-04-21 19:31 -20.29346 57.42700 5450 ft 173 kts 121°
2026-04-21 19:31 -20.30020 57.43769 5265 ft 172 kts 121°
2026-04-21 19:31 -20.30680 57.44814 5153 ft 168 kts 121°
2026-04-21 19:32 -20.31314 57.45815 5077 ft 164 kts 121°
2026-04-21 19:32 -20.31975 57.46863 4889 ft 171 kts 120°
2026-04-21 19:32 -20.32628 57.47898 4696 ft 170 kts 120°
2026-04-21 19:32 -20.33285 57.48937 4425 ft 167 kts 120°
2026-04-21 19:33 -20.33710 57.49608 4260 ft 163 kts 121°
2026-04-21 19:33 -20.34526 57.50888 3960 ft 146 kts 118°
2026-04-21 19:33 -20.35023 57.51789 3803 ft 142 kts 116°
2026-04-21 19:33 -20.35496 57.52720 3589 ft 145 kts 115°
2026-04-21 19:34 -20.35965 57.53672 3381 ft 145 kts 114°
2026-04-21 19:34 -20.36430 57.54634 3149 ft 147 kts 114°
2026-04-21 19:34 -20.36897 57.55607 2928 ft 148 kts 112°
2026-04-21 19:34 -20.37365 57.56580 2691 ft 146 kts 112°
2026-04-21 19:35 -20.37823 57.57532 2463 ft 143 kts 112°
2026-04-21 19:35 -20.38741 57.59446 2044 ft 150 kts 114°
2026-04-21 19:35 -20.39221 57.60447 1803 ft 151 kts 114°
2026-04-21 19:36 -20.39697 57.61438 1590 ft 147 kts 115°
2026-04-21 19:36 -20.40154 57.62386 1338 ft 141 kts 115°
2026-04-21 19:36 -20.40588 57.63301 1135 ft 141 kts 114°
2026-04-21 19:36 -20.41020 57.64233 950 ft 144 kts 116°
2026-04-21 19:37 -20.41477 57.65188 687 ft 145 kts 116°
2026-04-21 19:37 -20.41936 57.66138 476 ft 144 kts 117°
2026-04-21 19:37 -20.42402 57.67085 271 ft 145 kts 116°
2026-04-21 19:37 -20.42849 57.68002 201 ft 122 kts 118°
2026-04-21 19:38 -20.43058 57.68429 198 ft 7 kts 125°
2026-04-21 19:38 -20.43125 57.68459 193 ft 12 kts 185°
2026-04-21 19:38 -20.43153 57.68449 191 ft 0 kts 204°
2026-04-21 19:39 -20.43154 57.68449 192 ft 0 kts 204°
2026-04-21 19:39 -20.43164 57.68444 198 ft 3 kts 204°
2026-04-21 19:39 -20.43187 57.68433 201 ft 5 kts 204°
2026-04-21 19:39 -20.43216 57.68405 192 ft 7 kts 240°
2026-04-21 19:40 -20.43213 57.68353 195 ft 8 kts 288°
2026-04-21 19:40 -20.43190 57.68294 204 ft 9 kts 296°
2026-04-21 19:40 -20.43163 57.68237 206 ft 9 kts 296°
2026-04-21 19:40 -20.43143 57.68193 198 ft 11 kts 296°
2026-04-21 19:41 -20.43139 57.68112 198 ft 12 kts 231°
2026-04-21 19:41 -20.43181 57.68086 201 ft 1 kts 209°
2026-04-21 19:41 -20.43186 57.68078 199 ft 3 kts 233°
2026-04-21 19:41 -20.43204 57.68051 199 ft 7 kts 237°
2026-04-21 19:42 -20.43235 57.67998 204 ft 10 kts 238°
2026-04-21 19:42 -20.43260 57.67957 202 ft 0 kts 237°